Location: Bluff Heights
(33.7692°N, 118.1592°W)
Time: 18:36:47
(UTC+00:00)

Cosmos 614 Rocket - Pass Details

Date: 29 October 2020
Orbit: 734 x 763 km, 74.1° (Epoch: 24 November)

Event Time Altitude Azimuth Distance (km) Brightness Sun altitude
Rises 13:10:24 0° 214° (SW) 3,191 6.9 -12.9°
Reaches altitude 10° 13:12:53 10° 222° (SW) 2,265 6.1 -12.4°
Maximum altitude 13:17:41 40° 291° (WNW) 1,098 4.4 -11.4°
Drops below altitude 10° 13:22:29 10° 1° (N) 2,260 6.4 -10.4°
Sets 13:24:59 0° 9° (N) 3,182 7.2 -9.9°
